Precipitable_Water
0.99 0.97 0.99 0.99 1.05 1.09 1.13 1.17 1.18 1.22 1.24 1.24 1.26 1.28 1.28 1.30 1.32 1.34 1.36 1.38 1.36 1.36 1.38 1.38 1.36 1.36 1.36 1.38 1.40 1.40 1.42 1.40 1.38 1.38 1.38 1.40 1.36 1.34 1.30 1.28 1.28 1.26 1.26 1.26 1.26 1.24 1.22 1.24 1.24 1.24 1.24 1.22 1.22 1.24 1.26 1.26 1.22 1.17 1.11 1.05 1.03 1.01 1.01 0.99 0.97 0.97 0.95 0.95 0.95
0.97 0.97 1.01 1.07 1.11 1.13 1.17 1.18 1.20 1.24 1.26 1.28 1.30 1.30 1.32 1.34 1.34 1.36 1.36 1.38 1.38 1.38 1.38 1.38 1.38 1.36 1.36 1.38 1.40 1.42 1.40 1.40 1.36 1.36 1.38 1.40 1.40 1.36 1.32 1.30 1.28 1.28 1.26 1.26 1.24 1.22 1.22 1.22 1.22 1.24 1.26 1.26 1.26 1.26 1.28 1.28 1.24 1.18 1.13 1.09 1.05 1.01 0.99 0.97 0.97 0.97 0.97 0.97 0.95
0.97 0.99 1.03 1.09 1.13 1.15 1.17 1.18 1.20 1.24 1.26 1.30 1.32 1.34 1.34 1.36 1.36 1.36 1.38 1.38 1.38 1.38 1.38 1.36 1.36 1.36 1.36 1.36 1.38 1.40 1.42 1.40 1.36 1.34 1.36 1.40 1.40 1.38 1.36 1.32 1.30 1.30 1.28 1.26 1.24 1.22 1.22 1.20 1.22 1.22 1.26 1.28 1.28 1.28 1.26 1.26 1.20 1.15 1.11 1.07 1.05 1.03 0.99 0.97 0.97 0.99 0.99 0.97 0.97
0.97 1.01 1.05 1.13 1.15 1.17 1.18 1.20 1.22 1.24 1.28 1.30 1.34 1.36 1.36 1.38 1.38 1.38 1.38 1.38 1.38 1.36 1.36 1.34 1.34 1.34 1.34 1.34 1.36 1.38 1.40 1.38 1.36 1.34 1.34 1.34 1.38 1.38 1.38 1.34 1.34 1.34 1.34 1.32 1.28 1.24 1.22 1.20 1.18 1.20 1.22 1.24 1.26 1.26 1.24 1.20 1.15 1.09 1.07 1.05 1.05 1.05 1.03 0.99 0.99 0.99 0.99 0.99 0.97
0.99 1.03 1.07 1.15 1.17 1.20 1.20 1.22 1.22 1.26 1.28 1.32 1.34 1.36 1.36 1.38 1.38 1.38 1.38 1.36 1.36 1.36 1.34 1.32 1.32 1.32 1.34 1.34 1.34 1.36 1.38 1.38 1.34 1.32 1.32 1.32 1.36 1.38 1.36 1.34 1.34 1.34 1.36 1.36 1.32 1.28 1.24 1.20 1.18 1.18 1.18 1.20 1.20 1.20 1.18 1.13 1.07 1.05 1.05 1.05 1.05 1.05 1.05 1.03 1.01 1.01 1.01 0.99 0.97
1.01 1.05 1.13 1.18 1.20 1.22 1.24 1.24 1.24 1.28 1.30 1.34 1.34 1.34 1.36 1.36 1.36 1.36 1.34 1.34 1.34 1.34 1.34 1.32 1.32 1.32 1.32 1.32 1.32 1.34 1.38 1.38 1.34 1.32 1.30 1.30 1.34 1.34 1.32 1.30 1.32 1.32 1.34 1.36 1.34 1.32 1.28 1.22 1.18 1.17 1.17 1.15 1.15 1.15 1.13 1.09 1.05 1.03 1.03 1.01 1.03 1.05 1.05 1.03 1.03 1.03 1.01 0.99 0.97
1.05 1.11 1.17 1.22 1.22 1.24 1.24 1.24 1.26 1.30 1.32 1.34 1.34 1.34 1.34 1.34 1.34 1.34 1.32 1.32 1.34 1.34 1.34 1.32 1.32 1.32 1.32 1.30 1.30 1.32 1.34 1.36 1.36 1.32 1.32 1.30 1.34 1.32 1.28 1.26 1.26 1.28 1.30 1.32 1.34 1.32 1.28 1.22 1.17 1.15 1.13 1.13 1.11 1.09 1.07 1.05 1.03 1.01 0.99 0.99 1.01 1.03 1.03 1.03 1.03 1.03 1.01 0.97 0.95
1.15 1.17 1.18 1.22 1.22 1.24 1.24 1.26 1.28 1.32 1.34 1.34 1.34 1.32 1.34 1.34 1.32 1.32 1.32 1.32 1.32 1.32 1.30 1.30 1.32 1.32 1.32 1.30 1.30 1.30 1.32 1.34 1.34 1.34 1.32 1.34 1.34 1.30 1.26 1.24 1.24 1.26 1.28 1.30 1.32 1.30 1.26 1.20 1.17 1.15 1.13 1.11 1.07 1.05 1.05 1.03 1.01 0.99 0.99 0.99 1.03 1.05 1.05 1.05 1.03 1.01 0.99 0.95 0.93
1.20 1.22 1.22 1.22 1.24 1.26 1.26 1.28 1.30 1.32 1.32 1.32 1.34 1.34 1.34 1.34 1.32 1.32 1.32 1.32 1.30 1.30 1.30 1.30 1.32 1.32 1.32 1.30 1.30 1.28 1.30 1.34 1.34 1.34 1.34 1.34 1.34 1.30 1.26 1.22 1.22 1.24 1.26 1.28 1.26 1.26 1.24 1.20 1.17 1.13 1.11 1.09 1.05 1.03 1.03 1.03 1.01 1.01 1.01 1.01 1.05 1.07 1.05 1.03 1.01 0.99 0.97 0.95 0.91
1.20 1.22 1.22 1.24 1.26 1.30 1.32 1.32 1.34 1.34 1.32 1.32 1.34 1.34 1.34 1.34 1.30 1.30 1.30 1.30 1.30 1.30 1.30 1.30 1.30 1.32 1.32 1.30 1.28 1.28 1.30 1.34 1.34 1.36 1.36 1.34 1.34 1.30 1.26 1.22 1.22 1.22 1.24 1.24 1.22 1.24 1.24 1.20 1.17 1.13 1.09 1.07 1.05 1.03 1.03 1.03 1.03 1.03 1.05 1.07 1.07 1.05 1.03 1.01 0.99 0.97 0.95 0.93 0.91
1.22 1.22 1.22 1.24 1.28 1.30 1.34 1.34 1.34 1.34 1.34 1.34 1.34 1.34 1.34 1.32 1.30 1.30 1.32 1.32 1.30 1.28 1.28 1.30 1.30 1.30 1.30 1.30 1.30 1.30 1.30 1.32 1.34 1.36 1.34 1.34 1.32 1.28 1.26 1.20 1.18 1.18 1.18 1.17 1.18 1.20 1.22 1.20 1.17 1.11 1.07 1.05 1.05 1.03 1.03 1.03 1.05 1.07 1.07 1.07 1.07 1.03 1.01 0.99 0.97 0.97 0.95 0.93 0.91
1.22 1.22 1.24 1.26 1.30 1.32 1.34 1.34 1.34 1.34 1.34 1.32 1.32 1.32 1.32 1.32 1.32 1.32 1.32 1.30 1.28 1.28 1.28 1.30 1.30 1.30 1.30 1.30 1.30 1.30 1.30 1.32 1.34 1.34 1.32 1.30 1.28 1.28 1.28 1.26 1.18 1.17 1.17 1.17 1.17 1.18 1.18 1.18 1.15 1.11 1.09 1.07 1.07 1.05 1.05 1.05 1.07 1.05 1.05 1.03 1.03 1.01 0.99 0.97 0.97 0.95 0.95 0.93 0.91
1.22 1.22 1.24 1.26 1.30 1.32 1.34 1.34 1.34 1.34 1.32 1.32 1.32 1.32 1.32 1.32 1.32 1.32 1.32 1.30 1.30 1.30 1.30 1.32 1.32 1.30 1.30 1.30 1.30 1.30 1.30 1.32 1.32 1.30 1.28 1.26 1.26 1.28 1.30 1.28 1.22 1.22 1.22 1.20 1.18 1.17 1.17 1.17 1.15 1.13 1.11 1.09 1.09 1.07 1.07 1.07 1.05 1.03 1.01 0.99 0.97 0.97 0.95 0.95 0.95 0.95 0.93 0.93 0.91
1.22 1.22 1.24 1.26 1.28 1.30 1.32 1.32 1.32 1.32 1.32 1.32 1.32 1.32 1.32 1.32 1.32 1.32 1.32 1.32 1.32 1.32 1.32 1.32 1.34 1.32 1.32 1.30 1.30 1.30 1.30 1.30 1.30 1.28 1.24 1.22 1.24 1.26 1.28 1.30 1.28 1.28 1.28 1.26 1.24 1.20 1.17 1.15 1.13 1.13 1.11 1.09 1.09 1.09 1.07 1.05 1.05 1.01 0.97 0.95 0.95 0.95 0.95 0.95 0.95 0.95 0.93 0.91 0.91
1.20 1.22 1.24 1.26 1.28 1.30 1.30 1.32 1.32 1.32 1.30 1.30 1.30 1.32 1.32 1.32 1.32 1.32 1.34 1.32 1.34 1.34 1.34 1.34 1.34 1.34 1.34 1.32 1.32 1.32 1.30 1.30 1.30 1.28 1.24 1.24 1.24 1.26 1.28 1.28 1.28 1.28 1.28 1.28 1.26 1.24 1.20 1.15 1.13 1.11 1.09 1.07 1.07 1.07 1.05 1.03 1.03 0.99 0.97 0.95 0.95 0.95 0.95 0.95 0.95 0.95 0.95 0.93 0.91
1.20 1.20 1.22 1.24 1.26 1.28 1.30 1.30 1.32 1.30 1.30 1.30 1.32 1.32 1.32 1.32 1.34 1.34 1.34 1.34 1.34 1.34 1.34 1.32 1.32 1.32 1.34 1.32 1.32 1.30 1.30 1.30 1.30 1.28 1.28 1.26 1.28 1.28 1.26 1.24 1.24 1.24 1.24 1.26 1.26 1.24 1.20 1.15 1.11 1.07 1.05 1.05 1.05 1.05 1.03 1.01 1.01 0.99 0.99 0.97 0.97 0.97 0.95 0.97 0.97 0.97 0.97 0.95 0.93
1.18 1.20 1.22 1.24 1.24 1.26 1.28 1.30 1.30 1.30 1.30 1.32 1.32 1.32 1.32 1.34 1.34 1.34 1.34 1.34 1.34 1.34 1.32 1.32 1.32 1.32 1.32 1.30 1.30 1.30 1.30 1.30 1.30 1.30 1.30 1.28 1.28 1.26 1.24 1.20 1.20 1.20 1.20 1.18 1.20 1.20 1.18 1.13 1.07 1.05 1.03 1.03 1.03 1.03 1.01 1.01 0.99 0.99 0.97 0.97 0.97 0.97 0.97 0.97 0.97 0.97 0.97 0.95 0.93
1.20 1.20 1.22 1.24 1.24 1.26 1.28 1.28 1.30 1.30 1.30 1.32 1.32 1.32 1.32 1.32 1.32 1.32 1.34 1.34 1.32 1.32 1.32 1.32 1.32 1.32 1.30 1.30 1.30 1.30 1.30 1.30 1.30 1.30 1.30 1.28 1.26 1.22 1.18 1.17 1.17 1.17 1.15 1.15 1.15 1.13 1.11 1.07 1.05 1.03 1.05 1.05 1.03 1.01 0.99 0.99 0.97 0.97 0.97 0.95 0.97 0.97 0.97 0.97 0.95 0.95 0.93 0.93 0.91
1.20 1.20 1.22 1.24 1.24 1.26 1.28 1.28 1.30 1.30 1.30 1.32 1.32 1.32 1.32 1.32 1.32 1.32 1.32 1.32 1.32 1.32 1.30 1.30 1.30 1.30 1.30 1.28 1.30 1.30 1.30 1.30 1.30 1.30 1.28 1.26 1.22 1.17 1.15 1.13 1.13 1.13 1.11 1.11 1.09 1.07 1.05 1.03 1.03 1.03 1.05 1.03 1.01 0.99 0.97 0.95 0.95 0.93 0.93 0.93 0.93 0.93 0.93 0.93 0.93 0.91 0.91 0.91 0.89
1.18 1.20 1.22 1.22 1.24 1.26 1.28 1.28 1.30 1.30 1.30 1.32 1.32 1.32 1.32 1.32 1.32 1.32 1.30 1.30 1.32 1.32 1.30 1.30 1.30 1.30 1.28 1.28 1.28 1.30 1.30 1.30 1.28 1.28 1.26 1.22 1.17 1.15 1.11 1.11 1.09 1.09 1.09 1.07 1.05 1.03 1.01 1.03 1.03 1.03 1.03 1.01 0.99 0.97 0.95 0.93 0.93 0.91 0.91 0.91 0.91 0.91 0.91 0.89 0.89 0.89 0.89 0.89 0.87
1.18 1.20 1.22 1.24 1.26 1.26 1.28 1.28 1.30 1.30 1.30 1.30 1.30 1.30 1.32 1.32 1.32 1.30 1.30 1.30 1.30 1.30 1.30 1.30 1.28 1.28 1.28 1.28 1.26 1.28 1.28 1.28 1.26 1.24 1.22 1.18 1.17 1.15 1.11 1.09 1.09 1.07 1.05 1.03 1.01 1.01 1.01 1.01 1.01 1.01 1.01 0.99 0.97 0.95 0.93 0.93 0.91 0.89 0.89 0.87 0.87 0.87 0.87 0.87 0.87 0.87 0.87 0.87 0.87
1.20 1.22 1.24 1.26 1.26 1.28 1.28 1.30 1.30 1.30 1.30 1.28 1.30 1.30 1.30 1.30 1.30 1.30 1.30 1.30 1.30 1.30 1.30 1.28 1.28 1.28 1.26 1.26 1.24 1.26 1.26 1.26 1.24 1.22 1.20 1.18 1.17 1.15 1.13 1.11 1.07 1.05 1.03 1.01 0.99 0.99 0.99 1.01 1.01 0.99 0.99 0.97 0.95 0.93 0.93 0.91 0.89 0.87 0.87 0.87 0.87 0.87 0.87 0.87 0.87 0.87 0.87 0.87 0.87
1.22 1.24 1.26 1.26 1.28 1.28 1.28 1.28 1.28 1.28 1.28 1.28 1.28 1.28 1.28 1.28 1.30 1.30 1.30 1.30 1.30 1.28 1.28 1.28 1.28 1.28 1.26 1.24 1.24 1.24 1.24 1.26 1.24 1.20 1.18 1.18 1.17 1.15 1.15 1.11 1.07 1.03 0.99 0.99 0.99 0.99 0.99 0.99 0.99 0.97 0.97 0.95 0.93 0.91 0.91 0.89 0.87 0.87 0.85 0.85 0.85 0.85 0.87 0.87 0.87 0.87 0.87 0.87 0.87
1.22 1.24 1.26 1.28 1.28 1.28 1.28 1.28 1.28 1.28 1.28 1.26 1.28 1.28 1.28 1.28 1.28 1.30 1.30 1.30 1.28 1.28 1.28 1.28 1.28 1.28 1.26 1.24 1.22 1.22 1.24 1.22 1.22 1.20 1.18 1.17 1.17 1.17 1.15 1.11 1.05 1.01 0.99 0.99 0.99 0.99 0.99 0.99 0.99 0.97 0.93 0.93 0.91 0.89 0.89 0.87 0.87 0.87 0.85 0.85 0.85 0.85 0.87 0.87 0.87 0.89 0.89 0.89 0.89
1.24 1.24 1.26 1.26 1.26 1.26 1.26 1.26 1.26 1.26 1.26 1.26 1.26 1.26 1.26 1.26 1.28 1.28 1.28 1.28 1.28 1.28 1.28 1.28 1.28 1.28 1.26 1.26 1.24 1.22 1.20 1.20 1.18 1.18 1.17 1.15 1.15 1.15 1.15 1.13 1.05 1.01 0.99 0.99 0.99 0.99 0.99 0.99 0.97 0.95 0.93 0.91 0.89 0.87 0.87 0.87 0.87 0.87 0.87 0.87 0.85 0.87 0.87 0.87 0.89 0.89 0.89 0.89 0.89
1.22 1.24 1.24 1.24 1.24 1.24 1.24 1.24 1.24 1.24 1.26 1.26 1.26 1.26 1.26 1.26 1.26 1.26 1.26 1.26 1.26 1.26 1.26 1.26 1.26 1.26 1.26 1.26 1.24 1.20 1.18 1.17 1.17 1.15 1.13 1.13 1.13 1.13 1.11 1.11 1.05 1.03 1.01 1.01 0.99 0.99 0.99 0.97 0.95 0.93 0.91 0.89 0.87 0.87 0.87 0.89 0.89 0.89 0.89 0.89 0.89 0.89 0.89 0.87 0.89 0.89 0.89 0.91 0.89
1.20 1.22 1.22 1.24 1.24 1.22 1.22 1.22 1.24 1.24 1.24 1.24 1.24 1.24 1.24 1.24 1.26 1.26 1.24 1.24 1.24 1.26 1.26 1.24 1.24 1.24 1.24 1.22 1.20 1.18 1.17 1.13 1.13 1.11 1.11 1.09 1.09 1.09 1.09 1.09 1.07 1.03 1.03 1.01 0.99 0.99 0.97 0.95 0.93 0.93 0.91 0.91 0.89 0.89 0.89 0.91 0.91 0.91 0.91 0.91 0.91 0.91 0.89 0.89 0.89 0.89 0.89 0.89 0.91
1.20 1.20 1.22 1.22 1.22 1.22 1.22 1.22 1.22 1.22 1.24 1.24 1.24 1.24 1.24 1.24 1.24 1.24 1.22 1.22 1.24 1.24 1.24 1.22 1.22 1.22 1.20 1.18 1.17 1.15 1.13 1.11 1.09 1.09 1.09 1.09 1.09 1.07 1.07 1.07 1.05 1.05 1.03 1.01 0.99 0.99 0.97 0.95 0.93 0.93 0.91 0.91 0.91 0.91 0.93 0.93 0.93 0.93 0.93 0.93 0.93 0.91 0.91 0.91 0.91 0.89 0.89 0.89 0.91
1.18 1.20 1.20 1.20 1.20 1.20 1.22 1.22 1.22 1.22 1.22 1.24 1.24 1.24 1.24 1.24 1.22 1.22 1.22 1.22 1.22 1.22 1.20 1.20 1.18 1.17 1.15 1.13 1.11 1.11 1.09 1.09 1.09 1.09 1.09 1.07 1.07 1.07 1.05 1.05 1.03 1.03 1.01 1.01 0.99 0.97 0.97 0.95 0.93 0.93 0.91 0.91 0.91 0.91 0.93 0.95 0.95 0.95 0.95 0.93 0.93 0.91 0.91 0.91 0.89 0.89 0.89 0.89 0.91
1.18 1.18 1.18 1.18 1.20 1.20 1.20 1.20 1.20 1.22 1.22 1.22 1.24 1.24 1.22 1.22 1.20 1.20 1.20 1.20 1.18 1.17 1.15 1.15 1.13 1.11 1.09 1.09 1.09 1.09 1.09 1.09 1.07 1.07 1.07 1.05 1.05 1.03 1.03 1.03 1.01 1.01 0.99 0.99 0.97 0.95 0.93 0.93 0.91 0.91 0.91 0.91 0.91 0.93 0.93 0.95 0.95 0.95 0.93 0.93 0.91 0.91 0.91 0.91 0.91 0.89 0.89 0.89 0.89
1.18 1.18 1.18 1.17 1.18 1.18 1.18 1.18 1.20 1.20 1.22 1.22 1.22 1.22 1.20 1.18 1.17 1.17 1.15 1.13 1.11 1.11 1.11 1.09 1.09 1.07 1.07 1.07 1.07 1.07 1.05 1.05 1.05 1.05 1.03 1.03 1.01 1.01 1.01 0.99 0.99 0.97 0.97 0.97 0.95 0.95 0.93 0.91 0.91 0.91 0.91 0.91 0.93 0.93 0.95 0.97 0.97 0.95 0.93 0.93 0.93 0.91 0.91 0.91 0.91 0.91 0.89 0.89 0.89
1.17 1.17 1.17 1.17 1.17 1.17 1.17 1.17 1.18 1.20 1.20 1.20 1.20 1.20 1.18 1.15 1.15 1.13 1.13 1.11 1.09 1.07 1.07 1.05 1.05 1.05 1.05 1.05 1.03 1.03 1.03 1.03 1.03 1.01 1.01 1.01 0.99 0.99 0.97 0.97 0.95 0.95 0.95 0.95 0.93 0.93 0.93 0.91 0.91 0.91 0.91 0.93 0.93 0.95 0.95 0.97 0.97 0.95 0.95 0.93 0.93 0.93 0.93 0.91 0.91 0.91 0.91 0.89 0.89
1.13 1.15 1.15 1.15 1.15 1.15 1.17 1.17 1.17 1.18 1.18 1.18 1.17 1.17 1.17 1.15 1.13 1.13 1.11 1.09 1.07 1.05 1.03 1.03 1.01 1.01 1.01 1.01 1.01 1.01 1.01 1.01 1.01 1.01 0.99 0.99 0.99 0.97 0.97 0.97 0.95 0.95 0.93 0.93 0.95 0.93 0.93 0.93 0.93 0.93 0.93 0.93 0.95 0.95 0.95 0.97 0.97 0.95 0.95 0.93 0.93 0.93 0.91 0.91 0.91 0.91 0.89 0.89 0.89
1.09 1.11 1.11 1.13 1.13 1.15 1.15 1.15 1.17 1.17 1.17 1.15 1.15 1.15 1.15 1.13 1.13 1.11 1.09 1.09 1.07 1.05 1.03 1.01 1.01 1.01 1.01 1.01 1.01 1.01 1.01 1.01 1.01 0.99 0.99 0.99 0.97 0.97 0.95 0.95 0.95 0.95 0.95 0.95 0.95 0.95 0.93 0.93 0.93 0.93 0.93 0.95 0.95 0.95 0.95 0.95 0.95 0.93 0.93 0.91 0.91 0.91 0.91 0.91 0.91 0.91 0.89 0.89 0.91
1.01 1.03 1.05 1.07 1.09 1.11 1.11 1.13 1.13 1.13 1.13 1.13 1.13 1.13 1.13 1.13 1.11 1.11 1.09 1.09 1.07 1.05 1.03 1.01 1.01 1.01 1.01 0.99 0.99 0.99 0.99 0.99 0.99 0.99 0.99 0.97 0.95 0.95 0.93 0.93 0.95 0.95 0.95 0.95 0.95 0.95 0.93 0.93 0.93 0.93 0.93 0.95 0.95 0.95 0.95 0.95 0.93 0.91 0.91 0.91 0.89 0.89 0.89 0.89 0.89 0.89 0.91 0.91 0.93
0.95 0.95 0.97 0.99 1.01 1.03 1.05 1.07 1.07 1.09 1.09 1.09 1.09 1.09 1.09 1.09 1.09 1.09 1.09 1.09 1.07 1.05 1.03 1.01 0.99 0.99 0.97 0.97 0.97 0.97 0.97 0.97 0.97 0.97 0.97 0.97 0.95 0.93 0.93 0.93 0.93 0.93 0.93 0.93 0.93 0.93 0.93 0.93 0.93 0.93 0.95 0.95 0.95 0.93 0.93 0.93 0.91 0.91 0.89 0.89 0.89 0.89 0.89 0.89 0.89 0.89 0.91 0.97 0.97
0.91 0.91 0.91 0.91 0.93 0.95 0.97 1.01 1.01 1.01 1.01 1.03 1.03 1.05 1.05 1.05 1.07 1.07 1.07 1.07 1.07 1.05 1.01 0.99 0.97 0.95 0.95 0.95 0.95 0.95 0.95 0.97 0.97 0.97 0.97 0.97 0.95 0.93 0.93 0.91 0.93 0.93 0.93 0.93 0.93 0.95 0.95 0.95 0.95 0.95 0.95 0.95 0.95 0.93 0.93 0.91 0.91 0.91 0.89 0.89 0.89 0.89 0.89 0.91 0.93 0.93 0.95 0.99 0.99
0.89 0.89 0.89 0.87 0.87 0.89 0.89 0.93 0.93 0.93 0.95 0.97 0.97 0.99 1.01 1.01 1.03 1.03 1.03 1.03 1.03 1.01 0.99 0.93 0.93 0.93 0.93 0.93 0.93 0.93 0.95 0.95 0.95 0.97 0.95 0.95 0.95 0.95 0.93 0.91 0.93 0.93 0.95 0.95 0.95 0.97 0.97 0.97 0.97 0.97 0.97 0.95 0.95 0.93 0.93 0.93 0.93 0.91 0.91 0.91 0.91 0.93 0.93 0.95 0.97 0.99 0.99 0.99 0.99
0.91 0.89 0.89 0.87 0.87 0.87 0.87 0.87 0.87 0.89 0.91 0.91 0.93 0.93 0.95 0.95 0.97 0.99 0.99 0.99 0.99 0.97 0.95 0.89 0.89 0.89 0.89 0.89 0.91 0.91 0.91 0.93 0.93 0.93 0.93 0.93 0.93 0.93 0.93 0.93 0.95 0.95 0.97 0.99 0.99 0.99 0.99 0.99 0.99 1.01 0.99 0.99 0.97 0.97 0.95 0.97 0.95 0.93 0.93 0.93 0.95 0.95 0.97 0.99 0.99 0.99 0.99 0.97 0.97
0.93 0.91 0.89 0.89 0.87 0.87 0.87 0.85 0.85 0.87 0.87 0.89 0.89 0.89 0.91 0.91 0.91 0.93 0.93 0.93 0.93 0.91 0.89 0.87 0.87 0.87 0.87 0.87 0.87 0.87 0.89 0.89 0.91 0.91 0.93 0.93 0.93 0.93 0.93 0.95 0.95 0.97 0.99 0.99 1.01 1.01 1.01 1.01 1.01 1.01 1.01 1.01 0.99 0.99 0.97 0.97 0.95 0.95 0.95 0.95 0.95 0.95 0.97 0.97 0.97 0.97 0.95 0.95 0.95
0.95 0.93 0.91 0.89 0.89 0.89 0.87 0.85 0.85 0.87 0.87 0.87 0.85 0.87 0.87 0.87 0.87 0.87 0.87 0.87 0.87 0.87 0.85 0.85 0.85 0.83 0.85 0.83 0.83 0.83 0.85 0.87 0.87 0.89 0.91 0.91 0.91 0.93 0.93 0.93 0.95 0.95 0.97 0.99 0.99 1.01 1.01 1.01 1.01 1.03 1.03 1.01 1.01 0.99 0.99 0.97 0.97 0.95 0.95 0.95 0.95 0.95 0.95 0.95 0.95 0.93 0.91 0.93 0.93
Wind_Speed
20 20 20 20 19 19 19 20 20 20 20 19 19 19 19 19 19 20 21 22 24 27 30 33 35 37 38 38 36 34 32 33 34 34 34 34 34 35 35 35 34 34 33 32 31 31 31 32 33 33 34 34 33 33 32 30 29 28 27 27 28 28 28 28 28 28 28 28 27
20 20 20 20 19 19 19 19 19 19 19 19 18 18 18 19 19 20 21 22 23 26 29 31 34 36 37 37 35 32 31 31 33 33 32 32 33 33 34 35 34 34 33 32 31 31 31 32 33 33 33 34 35 34 33 31 29 29 28 29 29 28 28 28 28 28 28 28 27
21 21 20 19 19 19 19 19 20 19 19 18 18 18 18 18 19 21 22 22 23 26 28 30 32 34 35 36 34 31 30 30 31 32 31 31 31 32 33 34 34 34 33 31 31 32 32 32 32 32 33 34 35 35 33 32 30 30 30 30 29 29 28 28 28 28 28 27 27
21 21 20 19 19 19 20 20 20 20 19 19 18 18 18 19 20 22 22 22 23 25 27 29 31 32 33 34 33 31 29 30 31 31 30 30 30 31 32 33 33 33 32 31 31 32 32 32 31 31 31 33 34 34 33 31 30 30 30 30 29 29 28 28 27 27 27 27 27
21 20 20 19 20 20 20 20 20 20 20 19 19 19 19 20 22 23 23 22 22 24 26 28 29 30 31 32 32 30 29 29 30 30 30 29 30 30 31 32 32 32 31 31 31 31 31 31 30 30 30 31 31 32 31 29 29 29 29 29 29 28 28 27 27 27 26 26 26
20 20 20 20 20 20 20 20 20 20 20 20 20 20 20 21 23 24 24 22 22 23 26 27 29 30 31 31 31 30 29 28 29 29 29 29 29 30 31 32 31 31 30 30 31 31 31 31 30 29 28 29 29 29 29 28 28 28 28 28 28 27 27 27 26 26 26 27 27
20 20 20 20 20 20 20 20 21 21 21 21 22 22 22 23 24 25 25 23 22 23 25 27 29 30 30 30 30 29 28 27 28 28 29 29 29 30 31 31 31 31 31 31 31 32 31 30 30 29 28 28 28 28 27 27 27 27 27 26 26 26 26 26 26 26 27 27 27
20 20 19 19 20 20 20 20 21 22 22 23 23 23 23 24 25 25 25 24 23 24 25 28 30 31 30 29 29 29 28 27 27 28 28 29 29 30 30 30 30 30 30 31 32 32 31 30 29 28 27 27 27 27 27 26 26 26 26 25 25 25 25 26 26 27 27 27 27
19 19 19 19 20 20 21 21 22 23 24 24 24 24 24 24 24 25 25 25 25 25 26 29 31 31 30 29 29 28 27 27 26 27 28 29 29 29 29 29 29 30 30 31 32 32 32 31 29 28 27 27 27 27 26 26 26 26 25 25 25 25 25 26 27 27 27 27 27
18 18 18 19 20 21 21 22 23 24 24 25 25 24 24 24 24 24 24 25 25 26 27 28 30 30 30 29 29 28 27 26 25 26 27 28 29 29 29 28 29 30 30 30 31 32 32 31 29 28 27 27 27 27 27 26 26 26 25 25 25 26 27 27 27 27 27 27 27
18 18 18 19 20 21 22 22 23 24 25 25 25 25 24 24 24 24 24 25 26 26 27 28 29 29 29 29 29 28 27 26 25 26 27 29 30 29 28 28 29 30 30 30 30 31 31 30 29 28 28 27 27 27 27 27 26 26 26 26 26 27 27 27 27 27 27 27 27
17 17 18 19 20 21 21 22 23 24 25 25 25 25 24 24 24 24 25 25 26 27 27 28 28 28 28 28 28 28 27 26 25 26 28 30 30 29 29 29 29 31 31 31 31 30 30 29 29 28 28 28 27 27 27 27 27 27 27 27 27 27 27 27 27 27 27 27 27
17 18 18 19 20 20 21 22 23 24 25 26 26 26 25 24 24 25 25 26 26 27 27 28 28 27 27 27 27 27 27 26 26 26 28 30 30 30 29 29 30 31 32 32 31 30 29 29 29 29 28 28 28 27 28 28 28 28 28 27 27 27 26 26 27 27 27 27 27
18 18 19 19 19 20 21 22 23 24 25 26 26 26 25 24 24 25 25 26 26 27 27 28 27 27 26 26 26 26 26 26 26 26 28 30 31 30 28 28 29 31 32 33 32 31 30 30 29 29 28 28 28 28 28 28 28 28 27 27 27 27 27 27 27 26 26 27 27
18 19 19 19 19 20 21 23 24 25 26 26 27 26 26 25 25 25 25 26 27 27 28 27 26 26 25 25 25 26 26 27 27 27 28 30 31 30 28 27 28 29 31 32 33 32 32 31 30 29 29 29 29 29 29 28 28 27 27 27 27 27 27 27 27 26 26 26 26
19 19 20 20 20 20 21 23 25 26 26 26 27 27 27 26 25 25 26 26 27 28 28 27 26 25 25 25 25 26 26 27 27 27 29 31 32 30 28 27 27 28 29 30 31 32 32 31 31 30 29 29 29 29 29 28 28 27 27 27 27 27 27 26 26 26 26 26 26
19 20 20 21 21 21 22 23 24 25 26 27 27 27 27 27 26 26 26 27 27 28 28 27 26 25 25 25 25 26 26 26 27 28 29 32 32 31 28 27 27 28 29 29 30 31 32 31 31 30 30 30 29 29 29 28 28 27 27 27 26 26 26 26 26 26 26 26 26
19 20 21 21 22 22 22 23 24 25 26 28 28 28 27 27 27 26 27 27 28 28 28 27 26 26 25 24 25 25 26 26 27 28 30 32 32 31 28 27 27 28 28 29 29 30 31 31 31 30 30 30 30 29 29 28 28 27 27 26 26 25 26 26 26 26 26 26 26
18 19 20 21 22 23 23 23 23 24 26 28 28 27 27 26 27 27 27 27 27 27 27 27 26 25 25 24 25 25 26 26 27 28 31 32 31 30 28 27 27 27 28 28 29 30 31 31 31 31 30 30 30 29 29 28 27 27 26 26 26 26 26 26 26 26 26 26 26
17 19 20 21 22 23 23 23 23 24 25 27 28 27 26 25 26 26 26 25 25 26 26 26 26 25 25 25 26 26 26 26 27 28 30 31 30 28 27 27 27 27 27 28 29 30 30 31 31 31 30 30 30 29 28 28 27 27 26 26 26 26 26 26 26 26 26 26 26
17 18 19 21 22 23 23 22 22 23 24 26 26 26 25 25 25 26 26 25 24 24 25 25 26 26 26 25 26 27 27 27 27 28 29 29 29 28 27 27 27 27 28 28 29 30 30 30 30 30 30 30 29 29 28 27 27 27 27 27 27 26 26 26 26 26 27 27 27
16 17 19 20 22 22 21 21 21 22 23 24 25 25 25 24 25 25 25 25 24 24 24 25 26 26 27 27 27 28 28 28 28 29 29 29 29 28 28 27 27 28 28 29 30 30 30 30 30 30 30 29 29 28 28 27 27 27 27 27 27 27 27 26 26 27 27 27 27
15 17 19 20 21 21 21 20 20 21 22 23 24 24 24 24 24 24 24 24 24 24 24 25 25 26 27 28 28 28 29 30 30 30 30 30 30 29 29 29 29 29 29 30 30 31 31 31 30 30 30 29 29 28 28 28 27 27 27 27 27 27 27 27 27 27 27 27 28
13 16 18 19 20 21 21 21 21 21 22 22 23 23 23 23 23 23 24 24 23 23 23 24 25 26 27 28 28 29 30 31 31 31 32 32 31 30 30 30 30 30 30 30 30 31 31 30 30 30 30 29 29 28 28 28 28 28 28 28 27 27 27 27 27 27 28 28 28
12 14 17 18 20 21 23 23 23 22 22 22 22 22 22 23 23 23 24 24 24 23 23 24 24 25 26 27 28 29 30 32 32 33 33 32 32 31 31 31 31 31 31 30 31 31 31 30 30 29 29 29 29 28 28 28 28 28 28 28 28 28 28 28 28 28 28 28 28
11 12 15 17 19 21 23 24 24 23 22 21 21 21 22 23 23 24 24 24 24 24 24 24 25 26 26 27 28 29 30 31 32 33 33 33 32 32 32 32 32 31 31 31 31 31 30 30 29 29 29 28 28 28 28 28 28 28 28 28 28 28 28 28 28 28 28 28 28
10 11 13 15 18 20 22 24 24 23 22 21 21 21 23 23 24 24 25 25 25 25 25 25 25 26 27 27 28 28 29 29 30 32 32 33 32 32 32 32 32 32 31 31 31 30 30 29 29 29 28 28 27 27 27 27 27 27 28 28 28 28 28 28 28 28 27 27 28
11 11 13 14 16 18 20 22 22 22 22 21 21 22 23 23 24 25 25 25 25 25 25 25 25 26 26 27 27 27 28 28 29 30 30 31 31 32 32 32 32 32 31 30 30 29 29 28 28 28 28 27 27 27 27 27 26 26 26 26 26 26 27 27 27 27 27 27 28
11 12 13 13 14 15 17 19 20 21 21 21 21 22 22 22 23 23 24 25 25 26 26 26 26 26 26 26 26 26 26 26 27 27 28 29 30 30 31 31 31 31 30 29 28 28 28 27 27 27 27 27 27 27 27 26 26 25 25 25 25 26 26 26 26 27 27 28 28
12 12 13 13 13 14 15 16 18 19 20 20 21 21 21 21 21 21 22 23 24 25 25 25 25 25 25 25 25 24 24 24 24 25 25 26 27 28 29 30 30 30 28 28 27 27 27 27 27 27 27 27 27 27 26 26 25 25 25 25 25 25 25 26 26 27 27 28 28
12 12 13 13 14 14 15 15 16 17 17 18 19 20 19 19 18 19 19 20 21 21 22 22 23 23 23 23 22 22 22 22 22 22 23 24 25 26 27 28 28 28 26 26 26 26 26 26 26 26 26 26 26 26 26 25 25 25 24 24 25 25 25 26 26 27 27 28 28
12 13 13 14 14 15 15 16 16 16 16 17 17 17 17 17 17 17 17 18 18 19 19 19 20 20 20 20 20 20 20 20 21 21 22 22 23 24 25 26 26 25 25 25 25 25 25 25 25 25 25 25 25 25 24 24 24 24 24 24 24 24 25 25 26 26 27 27 27
13 13 14 15 15 16 16 17 17 17 17 17 17 17 16 16 16 16 17 17 17 17 17 17 17 18 18 18 19 19 19 19 19 19 20 20 20 21 22 23 23 24 24 23 23 23 24 24 24 24 24 24 23 23 23 23 23 24 24 23 24 24 24 25 25 26 26 27 27
13 14 14 15 16 16 17 17 17 17 17 17 17 17 17 16 16 16 16 16 16 15 15 15 15 15 16 16 17 17 17 17 17 17 18 18 18 19 20 21 22 22 22 22 22 23 23 23 23 23 22 22 23 23 23 23 23 23 23 23 23 24 24 25 25 26 26 27 27
14 14 15 15 16 16 17 18 18 18 17 17 17 17 17 16 16 16 16 16 15 15 14 13 13 13 14 14 15 15 15 16 16 16 17 17 18 18 18 19 20 20 20 21 22 22 22 22 22 22 22 22 22 22 22 22 22 22 22 22 23 23 24 25 25 26 26 27 27
14 14 15 15 15 16 17 17 18 18 17 17 17 17 16 16 16 16 16 16 16 15 14 13 12 12 13 13 13 14 14 15 15 15 16 16 17 17 18 18 19 19 19 20 21 21 22 22 21 21 21 21 21 21 21 21 22 22 22 22 23 23 24 24 25 26 26 27 27
14 14 15 15 15 15 16 16 17 17 17 17 17 16 16 16 16 16 16 16 16 15 14 12 12 12 12 12 13 13 13 13 14 14 15 15 16 16 16 17 17 18 18 19 20 20 21 21 21 21 21 21 21 21 21 22 22 22 22 22 23 23 24 24 25 25 26 26 27
14 14 14 14 14 14 15 15 15 16 16 16 16 16 16 16 16 15 15 16 16 15 13 12 12 12 12 12 12 12 12 12 13 13 14 14 14 15 15 15 16 17 17 18 19 20 20 21 21 21 21 21 22 22 22 22 22 22 22 23 23 23 24 24 25 25 25 25 25
14 14 14 14 14 14 14 14 14 14 15 15 15 15 15 15 15 15 15 15 15 14 13 13 12 12 12 12 12 11 11 11 12 12 12 13 13 13 14 14 15 16 16 17 18 19 20 20 21 21 22 22 22 23 23 22 22 22 23 23 23 23 23 24 24 24 24 23 23
14 14 15 15 14 14 14 14 14 14 13 14 14 14 14 14 15 15 15 14 14 14 14 13 12 12 12 11 11 10 10 10 11 11 11 12 12 13 13 14 15 16 16 17 18 19 20 21 21 22 22 23 23 23 23 23 23 23 22 23 23 23 23 23 23 23 23 23 23
14 14 15 15 15 14 14 14 13 13 13 13 13 13 13 13 13 14 14 14 14 14 13 13 12 12 11 11 10 10 10 9 10 10 11 11 12 13 13 14 15 16 17 17 18 19 20 21 22 22 23 23 24 24 24 24 23 22 22 22 23 23 23 23 23 23 23 23 23
Wind_Direction
247 248 247 245 243 240 238 236 235 234 233 231 228 223 219 214 210 207 204 201 198 196 197 197 198 197 196 196 197 198 199 199 199 200 201 201 201 201 201 201 199 199 198 199 200 202 203 203 202 201 200 199 199 201 202 204 205 207 209 211 213 214 216 217 219 220 220 220 220
246 246 245 243 241 238 236 234 232 232 230 227 222 217 212 207 203 199 196 193 191 191 192 193 194 195 195 195 195 196 195 195 196 198 198 198 199 200 201 202 201 201 200 201 202 203 204 204 203 202 201 200 201 203 205 206 207 209 212 213 215 216 217 219 220 220 220 220 220
245 244 242 241 239 236 234 231 230 228 226 222 217 211 206 201 196 192 189 186 185 185 186 188 190 190 191 191 192 192 192 192 194 195 196 197 198 199 201 202 202 202 202 202 202 203 204 203 203 203 202 202 204 206 208 208 209 211 213 215 216 218 219 220 220 221 221 221 221
244 242 240 238 236 234 231 229 227 225 221 216 210 205 201 197 192 187 184 181 181 182 183 184 185 186 187 188 189 190 191 192 193 194 196 197 198 199 200 201 202 202 202 202 202 203 203 203 203 203 203 202 204 206 208 209 210 212 214 216 218 219 220 220 221 221 221 222 222
242 240 238 236 234 232 230 227 225 221 217 211 205 201 198 195 189 185 182 180 180 181 183 183 184 184 185 187 188 189 190 192 193 195 197 199 199 199 199 199 201 202 203 203 203 202 202 202 203 203 202 202 204 206 207 208 211 213 216 218 219 220 221 221 221 222 223 224 224
239 237 235 234 232 230 228 226 222 218 212 206 201 198 197 194 190 187 184 182 182 182 184 184 185 185 186 186 188 189 191 192 194 196 199 200 200 199 197 198 201 203 205 205 204 202 202 202 203 203 203 203 204 206 207 209 212 215 217 218 220 220 221 222 222 223 224 225 225
236 234 232 231 229 228 226 223 219 214 208 202 198 196 196 195 192 190 189 188 185 184 184 186 186 186 186 186 188 190 192 194 196 198 200 201 200 198 197 198 202 205 207 206 204 203 203 203 203 204 204 204 205 206 208 211 214 216 217 219 220 221 222 223 224 225 225 225 226
233 231 230 229 227 225 222 219 215 210 204 199 196 195 195 195 195 195 195 194 190 186 185 186 187 187 187 187 188 191 194 196 198 200 201 201 200 198 198 200 204 207 208 207 205 203 203 204 204 205 205 205 206 208 210 213 215 217 218 220 222 223 224 225 225 225 226 226 227
230 228 228 227 225 222 219 215 210 206 201 197 195 195 196 196 197 197 198 198 194 189 186 186 187 188 188 188 190 192 195 198 201 202 202 201 199 198 199 202 206 209 209 208 205 204 204 205 205 206 206 206 208 210 213 215 216 218 220 222 224 225 226 226 226 226 226 227 228
227 226 226 225 223 219 214 210 206 202 198 195 195 195 196 197 197 198 198 198 195 191 188 187 187 188 190 191 193 195 198 201 202 202 202 201 199 198 199 203 207 209 209 208 207 205 205 206 207 207 208 208 210 213 215 216 218 220 222 224 225 225 225 225 225 226 227 228 230
224 224 224 223 220 215 210 206 203 200 198 196 196 196 197 197 197 197 197 196 195 193 191 189 188 189 191 194 196 199 202 205 205 204 202 201 199 198 200 203 206 207 207 208 207 207 207 208 208 208 209 211 213 215 216 218 219 221 223 224 224 224 224 224 224 226 227 229 231
223 223 222 220 216 212 208 205 203 201 199 198 198 198 198 197 197 196 196 195 195 194 193 192 191 191 193 196 199 202 205 207 207 206 203 201 199 199 201 203 204 205 206 206 207 208 209 209 209 210 211 213 215 216 217 218 220 221 221 222 222 223 223 224 225 226 228 230 231
222 221 220 217 213 209 207 205 204 202 200 199 199 199 198 198 198 197 196 195 195 196 196 195 195 195 197 199 202 204 207 208 208 207 204 201 199 200 202 204 205 205 205 205 206 207 208 209 210 211 213 215 216 216 217 217 218 219 220 221 222 223 224 224 226 227 229 231 233
221 220 218 214 211 208 207 206 204 202 201 200 199 199 198 198 198 198 198 197 197 198 198 198 199 200 201 203 205 207 208 209 208 206 203 200 198 198 201 204 206 206 206 207 207 208 209 210 211 212 214 215 216 216 216 216 217 218 219 221 222 224 225 226 227 229 230 232 234
221 219 216 213 211 209 208 206 204 202 201 200 200 198 197 197 198 198 199 199 200 200 200 201 202 203 205 207 209 210 210 209 207 204 201 199 196 195 197 201 204 206 207 208 208 209 210 210 210 211 213 214 216 216 216 216 217 219 221 222 223 225 226 227 229 230 232 233 235
221 219 216 214 212 210 208 206 203 202 202 201 200 199 197 196 197 198 198 199 201 202 202 203 204 206 209 210 211 211 209 208 205 202 199 196 194 193 194 197 201 203 205 207 208 209 210 210 210 211 213 215 216 217 217 218 219 220 222 224 225 226 228 229 230 232 233 235 236
221 219 216 214 212 211 208 205 203 202 202 202 201 199 198 198 199 199 200 200 202 203 204 205 208 210 211 212 211 209 207 204 202 198 195 193 193 193 194 196 199 202 204 206 207 208 208 209 210 211 214 216 217 218 218 219 220 222 223 225 226 228 229 231 232 233 234 235 236
221 218 216 213 211 210 208 204 201 200 201 202 201 201 202 204 204 204 204 203 204 205 206 208 210 211 211 210 208 205 203 202 200 197 194 193 193 194 196 199 201 203 205 207 207 207 207 207 210 212 215 217 218 218 219 220 222 223 224 225 227 229 231 232 233 234 235 236 237
220 217 215 213 211 209 207 204 200 199 199 201 202 204 206 208 207 207 206 206 206 207 207 208 209 210 209 206 203 202 201 201 199 197 195 194 195 198 200 202 204 206 207 208 207 206 206 208 211 214 216 217 218 219 220 222 223 224 225 226 228 230 231 233 234 235 236 237 239
220 218 216 213 211 209 206 202 199 198 198 200 202 205 207 208 207 205 204 204 205 205 206 206 206 206 205 203 200 199 200 201 201 200 198 197 198 200 202 204 205 207 207 206 205 206 207 210 213 215 216 217 219 220 221 223 225 226 227 227 229 231 232 234 236 237 238 240 241
221 219 216 213 210 207 204 200 198 197 197 199 202 204 206 206 205 203 201 201 201 201 202 202 202 202 201 200 199 199 200 202 203 203 201 200 200 202 204 206 207 206 206 205 206 207 210 212 214 216 217 218 220 221 223 225 226 227 228 229 230 232 234 236 238 239 241 242 243
219 217 213 210 207 204 200 198 197 196 197 198 200 202 204 205 204 203 201 199 198 198 199 200 200 200 199 199 199 200 200 202 204 204 202 201 202 204 207 208 208 206 206 206 208 210 212 214 216 217 218 220 221 223 225 226 227 228 229 231 233 235 236 238 240 242 243 244 246
215 212 208 205 203 199 196 194 194 195 196 197 199 201 203 204 204 203 201 200 198 197 198 199 200 200 200 200 201 201 201 202 203 203 202 202 203 206 209 210 209 207 207 209 210 212 214 216 217 218 219 221 222 224 226 227 229 230 231 233 235 237 239 241 242 244 246 247 249
209 207 204 202 199 196 193 190 190 192 194 196 197 200 202 204 204 203 202 201 199 198 198 200 201 202 203 203 203 202 202 202 202 203 202 203 204 207 209 210 209 209 210 211 213 214 215 216 217 219 220 222 223 225 227 229 230 232 234 235 237 239 241 243 245 247 249 251 252
203 202 201 199 197 194 191 188 188 189 191 193 196 199 201 203 204 203 202 201 201 200 200 201 202 204 205 206 206 205 204 203 204 204 205 205 206 207 208 209 209 210 212 213 215 215 216 217 218 219 220 222 224 226 228 231 233 234 236 238 240 242 243 245 247 249 251 253 255
196 195 194 193 192 190 188 187 186 187 189 192 195 199 202 203 203 202 201 201 201 201 202 203 205 206 208 209 208 207 206 206 206 207 207 208 207 207 207 207 208 210 212 214 215 216 216 217 218 219 221 222 225 227 230 233 235 237 239 240 242 244 245 247 249 251 253 255 257
189 185 182 181 182 183 184 184 185 186 188 192 197 201 203 204 204 203 202 202 201 202 203 205 206 208 209 210 210 209 209 209 209 208 208 208 207 206 205 205 207 209 211 213 214 215 216 217 218 219 221 224 226 230 233 235 237 239 241 242 244 245 247 248 250 252 254 257 259
183 177 172 170 173 176 179 182 183 185 188 193 198 201 203 204 205 205 204 204 203 203 204 205 206 207 209 210 210 210 210 208 207 207 206 206 206 205 205 205 206 208 210 212 213 214 216 217 219 221 223 226 229 232 235 237 239 241 242 243 245 247 248 250 252 254 256 258 260
179 174 169 165 166 170 175 178 181 183 187 192 197 199 201 202 204 205 205 205 205 205 205 206 207 207 208 208 208 207 205 203 203 202 203 204 204 205 205 205 206 207 209 211 213 214 216 218 220 222 225 228 232 234 237 239 241 242 244 245 247 248 250 252 254 256 258 260 262
178 173 169 165 164 165 168 173 177 180 185 190 194 197 198 199 199 199 200 200 201 202 203 204 204 205 204 204 202 200 198 198 198 199 201 203 204 205 206 206 207 209 210 212 214 215 217 220 222 225 228 231 234 237 239 241 243 244 246 247 249 251 252 254 256 258 260 261 262
174 172 168 165 163 162 163 165 169 173 179 185 190 193 194 192 189 189 189 189 191 192 194 195 196 197 197 197 197 196 195 196 197 199 201 203 205 206 207 208 209 211 212 214 216 218 220 223 226 228 231 234 237 240 241 242 244 246 248 249 251 253 255 257 258 260 261 262 263
170 168 166 165 163 161 160 160 161 165 170 176 181 184 185 183 181 180 179 179 180 181 183 185 188 191 193 195 196 197 197 198 200 201 203 205 206 208 209 210 212 213 215 217 218 221 223 226 229 232 235 238 241 243 244 244 246 248 250 251 253 255 257 258 259 260 261 262 263
166 165 165 165 164 162 161 159 159 160 162 166 170 173 175 176 175 175 174 175 175 177 179 183 187 191 194 196 198 200 201 203 205 206 207 208 208 208 208 209 212 215 217 219 221 223 226 229 232 235 238 240 243 244 245 246 247 249 251 252 254 256 257 258 259 260 261 262 262
164 163 164 165 166 165 164 163 162 161 161 162 164 167 168 170 171 172 173 174 176 178 181 185 189 193 195 197 198 200 201 203 204 206 207 208 207 207 209 211 214 217 220 222 224 226 228 231 233 236 238 241 243 244 245 246 247 249 250 252 253 255 256 257 258 259 260 261 261
163 162 163 165 167 168 168 168 167 166 166 165 166 167 167 169 170 172 173 176 179 183 187 190 191 191 192 192 194 195 197 199 201 204 206 207 208 209 210 213 216 219 222 224 226 228 230 232 234 236 238 240 242 243 244 245 246 248 249 251 253 254 256 257 258 259 260 261 261
164 163 163 165 167 170 171 173 173 173 173 173 173 173 173 173 174 175 176 179 183 188 192 194 193 191 190 190 191 193 195 197 200 203 205 208 209 210 212 215 218 221 224 227 228 230 231 233 234 236 237 239 241 242 242 243 245 247 248 250 252 253 255 256 257 259 260 261 261
169 167 166 167 168 171 173 175 177 178 179 179 180 180 180 180 180 180 181 183 187 192 194 194 193 191 190 190 191 193 195 198 200 202 204 207 209 211 213 216 218 222 225 227 229 230 232 233 234 235 237 238 239 240 241 243 244 246 248 249 251 252 254 255 258 260 261 262 263
175 173 171 171 172 174 176 177 179 181 183 184 185 186 186 186 187 187 187 189 192 194 195 193 192 191 191 191 192 194 197 200 202 203 205 207 209 211 213 216 218 221 224 226 228 229 231 233 234 235 236 237 238 239 241 242 244 245 247 249 250 253 255 258 260 262 264 264 264
180 179 178 177 177 179 180 182 183 185 186 187 188 189 190 191 192 193 194 194 196 195 194 192 192 193 194 196 197 198 201 204 206 207 208 210 212 214 216 217 220 223 225 227 228 229 231 233 235 235 236 238 239 240 241 242 244 246 248 250 253 256 259 261 262 263 264 265 266
185 184 184 183 183 184 185 187 188 189 190 191 192 192 193 195 196 196 196 195 193 192 191 192 193 196 199 201 202 202 204 207 209 211 212 213 216 219 221 222 225 227 229 231 231 232 233 235 236 237 239 240 241 242 243 245 246 248 251 254 257 259 262 263 263 264 264 265 266
188 189 189 189 188 188 189 190 192 194 196 197 197 196 195 194 194 193 191 189 188 189 190 192 194 198 201 204 205 205 206 208 212 215 217 218 221 224 226 227 229 231 233 235 235 236 237 238 239 241 242 243 244 245 246 248 250 253 255 258 260 261 262 263 263 264 265 266 268